Location: A�t Bou Chrif
(32.7193°N, 5.2385°W)
Time: 04:19:38
(UTC+00:00)

Meteor 1-26 Rocket - Pass Details

Date: 08 August 2020
Orbit: 809 x 926 km, 81.3° (Epoch: 20 September)

Event Time Altitude Azimuth Distance (km) Brightness Sun altitude
Rises 19:33:49 0° 358° (N) 3,396 7.7 -5.0°
Reaches altitude 10° 19:36:21 10° 4° (N) 2,443 6.9 -5.5°
Maximum altitude 19:41:40 49° 79° (E) 1,044 4.4 -6.5°
Drops below altitude 10° 19:46:52 10° 154° (SSE) 2,388 6.1 -7.5°
Sets 19:49:18 0° 160° (SSE) 3,312 6.9 -8.0°
